Simultaneous Nadir Overpasses (SNOs) Predictions

Prediction of SNOs between METOP-B and NOAA-19 Satellite Orbit:

Table of predicted SNOs for the next 14.0 days since TLE Epoch: 2/20/2015
Index Date (METOP-B) Time (METOP-B) Lat,Lon (METOP-B) SZA (METOP-B ) Date (NOAA-19) Time (NOAA-19) Lat,Lon (NOAA-19) SZA (NOAA-19 ) Distance(km) Time Diff (sec)
1 02/27/2015 01:23:42 74.96, 156.59 83.48 02/27/2015 01:22:32 74.97, 154.73 83.54 53.55 70
2 02/27/2015 02:14:30 -74.65, -36.95 96.84 02/27/2015 02:13:22 -74.64, -37.07 96.83 3.36 68
3 02/27/2015 03:05:11 74.61, 130.27 83.12 02/27/2015 03:04:27 74.59, 130.30 83.11 2.18 44
4 02/27/2015 03:55:53 -74.58, -62.47 96.92 02/27/2015 03:55:24 -74.60, -62.45 96.90 1.77 29
5 02/27/2015 04:46:33 74.59, 104.89 83.08 02/27/2015 04:46:30 74.59, 104.78 83.09 3.16 3
6 02/27/2015 05:37:15 -74.57, -87.85 96.96 02/27/2015 05:37:26 -74.55, -87.84 96.98 1.42 11
7 02/27/2015 06:27:56 74.53, 79.38 82.99 02/27/2015 06:28:32 74.55, 79.39 83.01 2.67 36
8 02/27/2015 07:18:37 -74.55,-113.23 97.00 02/27/2015 07:19:29 -74.56,-113.36 97.00 3.86 52
9 02/27/2015 08:09:20 74.41, 53.74 82.86 02/27/2015 08:10:33 74.46, 54.14 82.89 12.97 73




NCC Satellite Simultaneous Nadir Overpasses (SNOs) Prediction Service
